Regional Weather Roundup
Issued by NWS

Home | Current Version | Previous Version | Graphics & Text | Print | Product List | Glossary Off
Versions: 1 2 3 4 5 6 7 8 9 10 11 12 13 14 15 16 17 18 19 20 21 22 23 24 25 26 27 28 29 30 31 32 33 34 35 36 37 38 39 40 41 42 43 44 45 46 47 48 49 50

000
ASUS43 KMKX 221621
RWRWI

WISCONSIN REGIONAL WEATHER ROUNDUP
NATIONAL WEATHER SERVICE MILWAUKEE/SULLIVAN WI
1100 AM CDT THU JUN 22 2017

NOTE: "FAIR" INDICATES FEW OR NO CLOUDS BELOW 12,000 FEET WITH NO
SIGNIFICANT WEATHER AND/OR OBSTRUCTIONS TO VISIBILITY.

WIZ001-002-006>008-014>016-023>028-221700-
NORTHWEST WISCONSIN

CITY           SKY/WX    TMP DP  RH WIND       PRES   REMARKS
SUPERIOR ARPT  NOT AVBL
ASHLAND        CLOUDY    72  58  61 NW7       29.69R
HAYWARD        CLOUDY    68  58  70 CALM      29.71R
SIREN          PTSUNNY   65  61  85 CALM      29.73R
CUMBERLAND     LGT RAIN  64  63  94 SW6       29.74R
RICE LAKE      LGT RAIN  66  64  92 CALM      29.74R
CHETEK         LGT RAIN  67  65  94 CALM      29.70F
LADYSMITH      LGT RAIN  67  63  85 CALM      29.73S
EAU CLAIRE     LGT RAIN  70  67  90 S8        29.72R
MENOMONIE      RAIN      69  67  91 W6        29.75R
NEW RICHMOND   RAIN      66  64  93 S3        29.73R
OSCEOLA        RAIN      67  67 100 NW3       29.76R
$$

WIZ003>005-009-010-017-018-221700-
NORTH CENTRAL WISCONSIN

CITY           SKY/WX    TMP DP  RH WIND       PRES   REMARKS
MANITOWISH WTR LGT RAIN  65  65 100 S5        29.70F
ARBOR VITAE    LGT RAIN  67  63  87 NW3       29.71S
WOODRUFF       LGT RAIN  67  63  87 NW3       29.71S
RHINELANDER    CLOUDY    71  66  84 VRB5      29.72R
EAGLE RIVER    LGT RAIN  67  61  81 NW7       29.71S
LAND O LAKES   LGT RAIN  67  62  84 W3        29.72F
PHILLIPS       LGT RAIN  65  63  91 CALM      29.70F
TOMAHAWK       NOT AVBL
MEDFORD        CLOUDY    70  65  86 SW7       29.73S
MERRILL        CLOUDY    72  68  88 SW10      29.72F
$$

WIZ029-030-035-036-043>047-221700-
CENTRAL WISCONSIN

CITY           SKY/WX    TMP DP  RH WIND       PRES   REMARKS
WAUSAU         CLOUDY    68  67  96 W5        29.72R
MOSINEE        LGT RAIN  68  66  94 S10       29.74F FOG
MARSHFIELD     LGT RAIN  69  66  90 S12       29.71F
STEVENS POINT  TSTM      67  67 100 W7        29.76R
WAUPACA        CLOUDY    76  70  80 NW3       29.76R
WAUTOMA        PTSUNNY   75  68  78 SW10      29.75R
WISC RAPIDS    CLOUDY    71  68  90 CALM      29.77R
CAMP DOUGLAS   CLOUDY    73  66  78 SW3       29.73S
$$

WIZ011>013-019>022-031-037>040-048>050-221700-
NORTHEAST WISCONSIN

CITY           SKY/WX    TMP DP  RH WIND       PRES   REMARKS
ANTIGO         LGT RAIN  67  66  96 SW12      29.76R
SHAWANO        LGT RAIN  69  66  90 W5        29.73F
OCONTO         CLOUDY    72  67  85 SW6       29.71S
STURGEON BAY     N/A     74  68  81 SW10        N/A
GREEN BAY      CLOUDY    76  70  82 SW10      29.73S
MANITOWOC      CLOUDY    76  68  76 SW8       29.75R
APPLETON       PTSUNNY   75  66  73 SW9       29.73S
CLINTONVILLE   CLOUDY    73  66  78 CALM      29.73S
OSHKOSH        CLOUDY    76  67  73 SW8       29.74S
$$

WIZ032>034-041-042-053>061-221700-
SOUTHWEST WISCONSIN

CITY           SKY/WX    TMP DP  RH WIND       PRES   REMARKS
LA CROSSE      CLOUDY    74  67  78 S9        29.72R
SPARTA         CLOUDY    72  65  79 CALM      29.71F
VIROQUA        CLOUDY    69  64  84 SE16      29.65F
BOSCOBEL       LGT RAIN  68  65  90 S6        29.77F FOG
PRAIRIE DU CHI LGT RAIN  65  64  95 E10       29.69F
PLATTEVILLE    CLOUDY    75  69  82 SW10      29.82F
$$

WIZ056-057-062-063-064-067-068-221700-
SOUTH CENTRAL WISCONSIN

CITY           SKY/WX    TMP DP  RH WIND       PRES   REMARKS
REEDSBURG      RAIN      67  66  96 S8G17     29.73F
BARABOO/DELLS  LGT RAIN  68  64  85 SW6       29.75F
LONE ROCK      LGT RAIN  71  65  81 SW5       29.77R
MINERAL POINT  CLOUDY    70  70 100 S9        29.80F
MADISON        LGT RAIN  70  67  90 SW8       29.79R
MIDDLETON      CLOUDY    71  67  85 SW13G18   29.80S
WATERTOWN      LGT RAIN  72  72 100 SW5       29.80R
MONROE         LGT RAIN  73  66  78 SW13      29.83R
JANESVILLE     CLOUDY    81  66  61 SW12      29.80R HX  83
$$

WIZ051-052-058>065-066-070>072-221700-
SOUTHEAST WISCONSIN

CITY           SKY/WX    TMP DP  RH WIND       PRES   REMARKS
MILWAUKEE      LGT RAIN  80  67  64 SW13      29.78R HX  82
WAUKESHA       SUNNY     73  64  73 SW6       29.80R
MILWAUKEE/TIMM MOSUNNY   77  63  61 SW10      29.78S
RACINE         NOT AVBL
KENOSHA        CLOUDY    81  67  62 SW18G26   29.80R HX  83
FOND DU LAC    CLOUDY    76  65  68 SW10      29.76R
SHEBOYGAN      PTSUNNY   78  70  76 SW12G23   29.75R HX  80
WEST BEND      CLOUDY    73  68  83 SW8       29.78R
JUNEAU         CLOUDY    73  67  81 SW13      29.80R
$$

LSZ147-162-221700-
LAKE SUPERIOR

STATION/POSITION TIME  TEMP    WIND        PRES    WAVE
                       AIR SEA DIR/SP/G            HT/PER
                 (UTC) (F)     (DEG/KT/KT) (MB)    (FT/S)
W MID LAKE BUOY  1550   47 39  250/ 12/ 14 1004.2F   0
DEVILS ISLAND    1600   58     220/  9/ 12 1004.5F
SAXON HARBOR     1540   71     300/  2/  4 1004.4F
$$

LMZ867-665-643>646-221700-
LAKE MICHIGAN

STATION/POSITION TIME  TEMP    WIND        PRES    WAVE
                       AIR SEA DIR/SP/G            HT/PER
                 (UTC) (F)     (DEG/KT/KT) (MB)    (FT/S)
CHAMBERS ISLAND  1540   71     190/  5/  9 1005.1F
N MID LAKE BUOY  1550   58 55  190/ 12/ 14 1006.3S   3/ 5
NORTHPORT PIER   1600   72     260/  5/ 16 1005.4
KEWAUNEE LAKESHO 1554   56     170/  9/ 11 1006.5R
SHEBOYGAN LAKESH 1600   76     210/ 13/ 15 1006.9R
PORT WASHINGTON  1530   66     190/  6/  8 1008.8R
ATWATER BUOY     1409   62 54  130/  8/ 10 1007.9
MILWAUKEE LAKESH 1600   77     230/ 11/ 14   N/A
S MID LAKE BUOY  1550   67 61  190/ 19/ 23 1008.4F   2/ 4
KENOSHA   LAKESH 1600   80     230/ 11/ 22 1008.5
$$

TC  - TEMPERATURE IN CELSIUS
VSB - VISIBILITY IN STATUTE MILES
WCI - WIND CHILL INDEX
HX  - HEAT INDEX





USA.gov is the U.S. government's official web portal to all federal, state and local government web resources and services.